Flag for Turkey Weather past 2 weeks in Mersin, Turkey

Now
82 °F

Scattered clouds.


Feels Like: 83 °F
Forecast: 64 / 88 °F
Wind: 7 mph from Southwest

Location: Adana / Sakirpasa

Current Time: Jun 30, 2015 at 11:52:40 AM

Latest Report: Jun 30, 2015 at 10:50 AM


Visibility: N/A

Pressure: 29.89 "Hg

Humidity: 48%

Dew point: 61 °F

Location of MersinLocation

Historic Weather in Mersin — Graph

°F

Mersin temperature yesterday

Maximum temperature yesterday: 84 °F (at 12:50 PM)
Minimum temperature yesterday: 68 °F (at 5:50 AM)
Average temperature yesterday: 77 °F

Past Weeks' High & Low Weather Summary

 TemperatureHumidityPressure
High90 °F (Jun 26, 2:50 PM)94% (Jun 18, 1:20 AM)29.89 "Hg (Jun 18, 1:20 AM)
Low68 °F (Jun 21, 4:20 AM)38% (Jun 26, 2:50 PM)29.59 "Hg (Jun 26, 3:50 PM)
Average78 °F70%29.72 "Hg
* Reported Jun 15 10:20 AM — Jun 30 10:20 AM, Mersin, Weather by CustomWeather, © 2015

Note: Actual official high and low records may vary slightly from our data, if they occured in-between our weather recording intervals... More about our weather records

Advertising

Mersin weather history for previous 24 hours

 ConditionsComfort  
Time TempWeatherWind HumidityBarometerVisibility
10:20 AM
Tue, Jun 30
81 °FScattered clouds.7 mph54%29.89 "HgN/A
9:50 AM79 °FBroken clouds.6 mph61%29.89 "HgN/A
9:20 AM77 °FBroken clouds.8 mph69%29.89 "HgN/A
8:50 AM79 °FBroken clouds.6 mph70%29.89 "HgN/A
8:20 AM77 °FBroken clouds.5 mph74%29.89 "HgN/A
7:50 AM75 °FPartly sunny.5 mph74%29.86 "HgN/A
7:20 AM72 °FBroken clouds.5 mph83%29.86 "HgN/A
6:50 AM72 °FBroken clouds.5 mph83%29.86 "HgN/A
6:20 AM72 °FPartly cloudy.2 mph83%29.86 "HgN/A
5:50 AM70 °FPartly cloudy.5 mph88%29.86 "HgN/A
5:20 AM70 °FPartly cloudy.No wind83%29.86 "HgN/A
4:50 AM70 °FPartly cloudy.No wind83%29.86 "HgN/A
4:20 AM70 °FPassing clouds.No wind83%29.86 "HgN/A
3:50 AM70 °FPassing clouds.1 mph83%29.86 "HgN/A
3:20 AM70 °FPassing clouds.No wind83%29.86 "HgN/A
2:50 AM70 °FPassing clouds.3 mph83%29.86 "HgN/A
2:20 AM70 °FPassing clouds.5 mph83%29.86 "HgN/A
1:50 AM70 °FPassing clouds.3 mph83%29.86 "HgN/A
1:20 AM70 °FPassing clouds.5 mph83%29.86 "HgN/A
12:50 AM72 °FPassing clouds.3 mph78%29.89 "HgN/A
12:20 AM70 °FPassing clouds.No wind83%29.89 "HgN/A
11:50 PM
Mon, Jun 29
72 °FPassing clouds.3 mph78%29.89 "HgN/A
11:20 PM70 °FPassing clouds.5 mph83%29.89 "HgN/A
10:50 PM72 °FPassing clouds.3 mph78%29.89 "HgN/A
10:20 PM72 °FPassing clouds.No wind78%29.89 "HgN/A
9:50 PM72 °FPassing clouds.2 mph78%29.89 "HgN/A
9:20 PM72 °FPassing clouds.3 mph78%29.89 "HgN/A
8:50 PM73 °FPassing clouds.3 mph74%29.86 "HgN/A
8:20 PM73 °FPassing clouds.5 mph74%29.86 "HgN/A
7:50 PM75 °FPassing clouds.7 mph65%29.86 "HgN/A
7:20 PM77 °FPassing clouds.9 mph61%29.86 "HgN/A
6:50 PM79 °FPassing clouds.10 mph58%29.86 "HgN/A
6:20 PM81 °FPassing clouds.12 mph54%29.86 "HgN/A
5:50 PM81 °FPassing clouds.13 mph51%29.86 "HgN/A
5:20 PM82 °FPassing clouds.14 mph45%29.86 "HgN/A
4:50 PM82 °FScattered clouds.14 mph45%29.86 "HgN/A
4:20 PM84 °FScattered clouds.14 mph43%29.86 "HgN/A
3:50 PM84 °FScattered clouds.14 mph40%29.86 "HgN/A
3:20 PM84 °FScattered clouds.14 mph40%29.86 "HgN/A
2:50 PM84 °FScattered clouds.12 mph40%29.86 "HgN/A
2:20 PM84 °FScattered clouds.13 mph43%29.86 "HgN/A
1:50 PM84 °FScattered clouds.14 mph45%29.86 "HgN/A
1:20 PM84 °FScattered clouds.12 mph48%29.86 "HgN/A
12:50 PM84 °FScattered clouds.12 mph45%29.86 "HgN/A
12:20 PM82 °FScattered clouds.8 mph45%29.86 "HgN/A
11:50 AM82 °FScattered clouds.6 mph45%29.86 "HgN/A
11:20 AM82 °FScattered clouds.6 mph48%29.86 "HgN/A
Weather by CustomWeather, © 2015

See weather overviewHow to use our weather pages